This demonstration page uses our WeatherBlox Daily Observations layout. Learn more.

Left ArrowRight Arrow

36.17497, -115.13722

Hourly Observations for October 12, 2021

Temp ( °F °C ) Dew Point ( °F °C ) Humidity (%) Winds ( mph kmh ) Pressure ( in mb ) Visibility ( mi km ) Precip ( " mm )
12:53 am 00:53 Cloudy with Blowing Dust 49 9.4 33 0.6 55 55 NW 28 44 29.53 1000 10 16 0.00 0.00
1:53 am 01:53 Cloudy with Light Rain 48 8.9 35 1.7 61 61 NW 28 44 29.54 1000 10 16 0.00 0.00
2:53 am 02:53 Cloudy with Light Rain 49 9.4 33 0.6 55 55 NW 35 56 29.56 1001 10 16 0.00 0.00
3:53 am 03:53 Cloudy with Light Rain 49 9.4 34 1.1 56 56 NW 31 50 29.60 1002 10 16 0.00 0.00
4:53 am 04:53 Cloudy with Light Rain 48 8.9 34 1.1 58 58 NW 28 44 29.64 1004 10 16 0.00 0.00
5:53 am 05:53 Mostly Clear with Blowing Dust 48 8.9 34 1.1 58 58 NNW 21 33 29.68 1005 10 16 0.00 0.00
6:53 am 06:53 Sunny with Blowing Dust 49 9.4 33 0.6 55 55 NNW 15 24 29.72 1007 10 16 N/A
7:53 am 07:53 Mostly Cloudy with Blowing Dust 52 11.1 31 -0.6 45 45 NW 18 30 29.75 1008 10 16 N/A
8:53 am 08:53 Cloudy with Blowing Dust 54 12.2 26 -3.3 34 34 NW 21 33 29.79 1009 10 16 N/A
9:53 am 09:53 Sunny with Blowing Dust 57 13.9 25 -3.9 29 29 NNW 18 30 29.80 1009 10 16 0.00 0.00
10:53 am 10:53 Sunny with Light Rain 58 14.4 25 -3.9 28 28 NW 24 39 29.82 1010 10 16 0.00 0.00
11:53 am 11:53 Sunny with Blowing Dust 61 16.1 26 -3.3 26 26 NW 20 31 29.84 1010 10 16 0.00 0.00
12:53 pm 12:53 Sunny with Blowing Dust 63 17.2 25 -3.9 24 24 NNW 21 33 29.84 1011 10 16 N/A
1:53 pm 13:53 Sunny with Blowing Dust 64 17.8 26 -3.3 24 24 NW 15 24 29.85 1011 10 16 N/A
2:53 pm 14:53 Sunny with Blowing Dust 65 18.3 26 -3.3 23 23 NNW 17 28 29.86 1011 10 16 N/A
3:53 pm 15:53 Sunny with Blowing Dust 65 18.3 26 -3.3 23 23 N 13 20 29.87 1011 10 16 N/A
4:53 pm 16:53 Sunny with Blowing Dust 65 18.3 26 -3.3 23 23 WNW 10 17 29.88 1012 10 16 N/A
5:53 pm 17:53 Sunny with Blowing Dust 64 17.8 25 -3.9 23 23 NW 10 17 29.89 1012 10 16 N/A
6:53 pm 18:53 Clear with Blowing Dust 62 16.7 26 -3.3 25 25 ENE 8 13 29.91 1013 10 16 N/A
7:53 pm 19:53 Clear with Blowing Dust 61 16.1 28 -2.2 29 29 ENE 5 7 29.92 1013 10 16 N/A
8:53 pm 20:53 Clear with Blowing Dust 59 15 28 -2.2 31 31 N N/A 29.93 1014 10 16 N/A
9:53 pm 21:53 Clear with Blowing Dust 56 13.3 29 -1.7 36 36 NNW 3 6 29.96 1014 10 16 N/A
10:53 pm 22:53 Clear with Blowing Dust 53 11.7 29 -1.7 40 40 NW 6 9 29.97 1015 10 16 N/A
11:53 pm 23:53 Clear with Blowing Dust 52 11.1 30 -1.1 43 43 NNW 6 9 29.97 1015 10 16 N/A

Powered by AerisWeather